Location: Cantaing
(50.1487°N, 3.1675°E)
Time: 23:03:52
(UTC+00:00)

Cosmos 2082 Rocket - Pass Details

Date: 15 April 2026
Orbit: 831 x 853 km, 71.0° (Epoch: 19 May)

Event Time Altitude Azimuth Distance (km) Brightness Sun altitude
Exits shadow 02:42:10 34° 216° (SW) 1,363 2.7 -19.1°
Maximum altitude 02:44:45 81° 299° (WNW) 870 2.2 -18.8°
Drops below altitude 10° 02:50:30 10° 28° (NNE) 2,494 5.7 -18.1°
Sets 02:52:58 0° 29° (NNE) 3,433 6.7 -17.8°
